| DS18B20 | SHTC3 | PZEM-004T | WiFi | ||||||||
|---|---|---|---|---|---|---|---|---|---|---|---|
| ID | Date d/m/Y & Time | data1 สูง | data2 ต่ำ | data3 นอก | temp pcb | hum pcb | Volt | Amp | Watt | rssi | Time |
| 15622 | 24/08/2026 17:08:37 | 33.1  | 32.6  | 32.2  | 34.1  | 63.6  | 232.4  | 0.04  | 4.6  | -75  | 17:08 |
| 15621 | 24/08/2026 17:03:52 | 33.1  | 32.6  | 32.1  | 34.1  | 63.4  | 234.2  | 0.04  | 4.6  | -76  | 17:03 |
| 15620 | 24/08/2026 16:59:09 | 33.2  | 32.6  | 32.2  | 34.0  | 63.2  | 234.0  | 0.04  | 4.6  | -75  | 16:59 |
| 15619 | 24/08/2026 16:54:25 | 33.2  | 32.6  | 32.5  | 34.3  | 63.2  | 234.2  | 0.04  | 4.5  | -75  | 16:54 |
| 15618 | 24/08/2026 16:49:42 | 33.3  | 32.6  | 32.5  | 34.1  | 63.0  | 233.9  | 0.04  | 4.5  | -77  | 16:49 |
| 15617 | 24/08/2026 16:44:58 | 33.3  | 32.6  | 32.5  | 34.1  | 63.1  | 232.0  | 0.04  | 4.5  | -73  | 16:44 |
| 15616 | 24/08/2026 16:40:15 | 33.3  | 32.6  | 32.6  | 34.2  | 63.1  | 233.5  | 0.04  | 4.5  | -76  | 16:40 |
| 15615 | 24/08/2026 16:35:31 | 33.4  | 32.6  | 32.7  | 34.2  | 63.0  | 231.3  | 0.04  | 4.5  | -77  | 16:35 |
| 15614 | 24/08/2026 16:30:48 | 33.4  | 32.6  | 32.9  | 34.3  | 62.8  | 233.2  | 0.04  | 4.6  | -75  | 16:30 |
| 15613 | 24/08/2026 16:26:04 | 33.4  | 32.6  | 33.0  | 34.2  | 62.7  | 232.6  | 0.04  | 4.5  | -77  | 16:26 |
| 15612 | 24/08/2026 16:21:21 | 33.4  | 32.6  | 33.3  | 34.3  | 62.7  | 234.1  | 0.04  | 4.5  | -73  | 16:21 |
| 15611 | 24/08/2026 16:16:35 | 33.4  | 32.6  | 33.4  | 34.4  | 62.8  | 234.6  | 0.04  | 4.6  | -75  | 16:16 |
| 15610 | 24/08/2026 16:11:51 | 33.4  | 32.6  | 33.2  | 34.4  | 62.7  | 232.9  | 0.04  | 4.6  | -74  | 16:11 |
| 15609 | 24/08/2026 16:07:07 | 33.4  | 32.5  | 33.5  | 34.3  | 62.7  | 233.9  | 0.04  | 4.6  | -76  | 16:07 |
| 15608 | 24/08/2026 16:02:22 | 33.5  | 32.5  | 33.7  | 34.3  | 62.5  | 233.2  | 0.04  | 4.6  | -77  | 16:02 |
| 15607 | 24/08/2026 15:57:38 | 33.5  | 32.5  | 33.6  | 34.3  | 62.6  | 234.6  | 0.04  | 4.6  | -78  | 15:57 |
| 15606 | 24/08/2026 15:52:55 | 33.5  | 32.5  | 33.7  | 34.3  | 62.4  | 231.4  | 0.04  | 4.6  | -77  | 15:52 |
| 15605 | 24/08/2026 15:48:12 | 33.5  | 32.4  | 33.7  | 34.3  | 62.4  | 234.0  | 0.04  | 4.5  | -75  | 15:48 |
| 15604 | 24/08/2026 15:43:28 | 33.5  | 32.4  | 33.7  | 34.3  | 62.3  | 234.2  | 0.04  | 4.6  | -72  | 15:43 |
| 15603 | 24/08/2026 15:38:44 | 33.6  | 32.4  | 33.5  | 34.3  | 62.2  | 230.8  | 0.04  | 4.5  | -77  | 15:38 |
| 15602 | 24/08/2026 15:34:01 | 33.6  | 32.4  | 33.5  | 34.5  | 62.2  | 234.0  | 0.04  | 4.5  | -75  | 15:34 |
| 15601 | 24/08/2026 15:29:17 | 33.6  | 32.4  | 33.4  | 34.4  | 62.1  | 231.3  | 0.04  | 4.6  | -75  | 15:29 |
| 15600 | 24/08/2026 15:24:34 | 33.6  | 32.4  | 33.5  | 34.3  | 62.0  | 233.2  | 0.04  | 4.6  | -75  | 15:24 |
| 15599 | 24/08/2026 15:19:49 | 33.6  | 32.4  | 33.5  | 34.5  | 61.9  | 233.9  | 0.04  | 4.6  | -76  | 15:19 |